Year,Month,Day,Hour,Minute,Value (Times are PST for temperature in C)
2017,06,20,00,00,16.40
2017,06,20,00,01,16.40
2017,06,20,00,02,16.40
2017,06,20,00,03,16.40
2017,06,20,00,04,16.30
2017,06,20,00,05,16.30
2017,06,20,00,06,16.30
2017,06,20,00,07,16.30
2017,06,20,00,08,16.40
2017,06,20,00,09,16.40
2017,06,20,00,10,16.40
2017,06,20,00,11,16.40
2017,06,20,00,12,16.40
2017,06,20,00,13,16.50
2017,06,20,00,14,16.50
2017,06,20,00,15,16.50
2017,06,20,00,16,16.50
2017,06,20,00,17,16.50
2017,06,20,00,18,16.50
2017,06,20,00,19,16.50
2017,06,20,00,20,16.50
2017,06,20,00,21,16.50
2017,06,20,00,22,16.40
2017,06,20,00,23,16.40
2017,06,20,00,24,16.40
2017,06,20,00,25,16.40
2017,06,20,00,26,16.40
2017,06,20,00,27,16.30
2017,06,20,00,28,16.30
2017,06,20,00,29,16.30
2017,06,20,00,30,16.30
2017,06,20,00,31,16.30
2017,06,20,00,32,16.30
2017,06,20,00,33,16.30
2017,06,20,00,34,16.30
2017,06,20,00,35,16.30
2017,06,20,00,36,16.30
2017,06,20,00,37,16.30
2017,06,20,00,38,16.30
2017,06,20,00,39,16.30
2017,06,20,00,40,16.30
2017,06,20,00,41,16.30
2017,06,20,00,42,16.30
2017,06,20,00,43,16.30
2017,06,20,00,44,16.30
2017,06,20,00,45,16.20
2017,06,20,00,46,16.20
2017,06,20,00,47,16.20
2017,06,20,00,48,16.20
2017,06,20,00,49,16.20
2017,06,20,00,50,16.20
2017,06,20,00,51,16.20
2017,06,20,00,52,16.20
2017,06,20,00,53,16.20
2017,06,20,00,54,16.20
2017,06,20,00,55,16.30
2017,06,20,00,56,16.30
2017,06,20,00,57,16.40
2017,06,20,00,58,16.50
2017,06,20,00,59,16.60
2017,06,20,01,00,16.70
2017,06,20,01,01,16.70
2017,06,20,01,02,16.80
2017,06,20,01,03,16.80
2017,06,20,01,04,16.90
2017,06,20,01,05,16.90
2017,06,20,01,06,17.00
2017,06,20,01,07,17.10
2017,06,20,01,08,17.10
2017,06,20,01,09,17.10
2017,06,20,01,10,17.10
2017,06,20,01,11,17.10
2017,06,20,01,12,17.10
2017,06,20,01,13,17.10
2017,06,20,01,14,17.10
2017,06,20,01,15,17.10
2017,06,20,01,16,17.20
2017,06,20,01,17,17.20
2017,06,20,01,18,17.10
2017,06,20,01,19,17.10
2017,06,20,01,20,17.10
2017,06,20,01,21,17.10
2017,06,20,01,22,17.10
2017,06,20,01,23,17.10
2017,06,20,01,24,17.10
2017,06,20,01,25,17.00
2017,06,20,01,26,17.00
2017,06,20,01,27,17.00
2017,06,20,01,28,17.00
2017,06,20,01,29,17.10
2017,06,20,01,30,17.10
2017,06,20,01,31,17.10
2017,06,20,01,32,17.10
2017,06,20,01,33,17.10
2017,06,20,01,34,17.10
2017,06,20,01,35,17.10
2017,06,20,01,36,17.10
2017,06,20,01,37,17.10
2017,06,20,01,38,17.10
2017,06,20,01,39,17.10
2017,06,20,01,40,17.10
2017,06,20,01,41,17.10
2017,06,20,01,42,17.10
2017,06,20,01,43,17.10
2017,06,20,01,44,17.10
2017,06,20,01,45,17.10
2017,06,20,01,46,17.10
2017,06,20,01,47,17.20
2017,06,20,01,48,17.20
2017,06,20,01,49,17.20
2017,06,20,01,50,17.20
2017,06,20,01,51,17.30
2017,06,20,01,52,17.30
2017,06,20,01,53,17.30
2017,06,20,01,54,17.30
2017,06,20,01,55,17.30
2017,06,20,01,56,17.30
2017,06,20,01,57,17.20
2017,06,20,01,58,17.20
2017,06,20,01,59,17.30
2017,06,20,02,00,17.30
2017,06,20,02,01,17.30
2017,06,20,02,02,17.30
2017,06,20,02,03,17.30
2017,06,20,02,04,17.30
2017,06,20,02,05,17.30
2017,06,20,02,06,17.30
2017,06,20,02,07,17.30
2017,06,20,02,08,17.30
2017,06,20,02,09,17.30
2017,06,20,02,10,17.30
2017,06,20,02,11,17.30
2017,06,20,02,12,17.30
2017,06,20,02,13,17.30
2017,06,20,02,14,17.30
2017,06,20,02,15,17.30
2017,06,20,02,16,17.30
2017,06,20,02,17,17.30
2017,06,20,02,18,17.30
2017,06,20,02,19,17.40
2017,06,20,02,20,17.40
2017,06,20,02,21,17.40
2017,06,20,02,22,17.40
2017,06,20,02,23,17.40
2017,06,20,02,24,17.40
2017,06,20,02,25,17.40
2017,06,20,02,26,17.50
2017,06,20,02,27,17.50
2017,06,20,02,28,17.50
2017,06,20,02,29,17.50
2017,06,20,02,30,17.60
2017,06,20,02,31,17.60
2017,06,20,02,32,17.50
2017,06,20,02,33,17.50
2017,06,20,02,34,17.50
2017,06,20,02,35,17.50
2017,06,20,02,36,17.50
2017,06,20,02,37,17.60
2017,06,20,02,38,17.60
2017,06,20,02,39,17.60
2017,06,20,02,40,17.60
2017,06,20,02,41,17.60
2017,06,20,02,42,17.60
2017,06,20,02,43,17.60
2017,06,20,02,44,17.60
2017,06,20,02,45,17.60
2017,06,20,02,46,17.60
2017,06,20,02,47,17.60
2017,06,20,02,48,17.60
2017,06,20,02,49,17.60
2017,06,20,02,50,17.60
2017,06,20,02,51,17.60
2017,06,20,02,52,17.60
2017,06,20,02,53,17.50
2017,06,20,02,54,17.50
2017,06,20,02,55,17.50
2017,06,20,02,56,17.50
2017,06,20,02,57,17.50
2017,06,20,02,58,17.40
2017,06,20,02,59,17.40
2017,06,20,03,00,17.40
2017,06,20,03,01,17.40
2017,06,20,03,02,17.40
2017,06,20,03,03,17.40
2017,06,20,03,04,17.40
2017,06,20,03,05,17.40
2017,06,20,03,06,17.40
2017,06,20,03,07,17.40
2017,06,20,03,08,17.40
2017,06,20,03,09,17.40
2017,06,20,03,10,17.40
2017,06,20,03,11,17.40
2017,06,20,03,12,17.40
2017,06,20,03,13,17.40
2017,06,20,03,14,17.30
2017,06,20,03,15,17.30
2017,06,20,03,16,17.30
2017,06,20,03,17,17.30
2017,06,20,03,18,17.30
2017,06,20,03,19,17.30
2017,06,20,03,20,17.30
2017,06,20,03,21,17.30
2017,06,20,03,22,17.30
2017,06,20,03,23,17.30
2017,06,20,03,24,17.30
2017,06,20,03,25,17.20
2017,06,20,03,26,17.20
2017,06,20,03,27,17.20
2017,06,20,03,28,17.20
2017,06,20,03,29,17.10
2017,06,20,03,30,17.10
2017,06,20,03,31,17.10
2017,06,20,03,32,17.10
2017,06,20,03,33,17.00
2017,06,20,03,34,17.00
2017,06,20,03,35,17.00
2017,06,20,03,36,16.90
2017,06,20,03,37,16.90
2017,06,20,03,38,16.90
2017,06,20,03,39,16.90
2017,06,20,03,40,16.90
2017,06,20,03,41,16.90
2017,06,20,03,42,16.90
2017,06,20,03,43,16.80
2017,06,20,03,44,16.80
2017,06,20,03,45,16.80
2017,06,20,03,46,16.80
2017,06,20,03,47,16.80
2017,06,20,03,48,16.80
2017,06,20,03,49,16.80
2017,06,20,03,50,16.70
2017,06,20,03,51,16.70
2017,06,20,03,52,16.70
2017,06,20,03,53,16.70
2017,06,20,03,54,16.70
2017,06,20,03,55,16.70
2017,06,20,03,56,16.70
2017,06,20,03,57,16.70
2017,06,20,03,58,16.70
2017,06,20,03,59,16.70
2017,06,20,04,00,16.80
2017,06,20,04,01,16.80
2017,06,20,04,02,16.70
2017,06,20,04,03,16.70
2017,06,20,04,04,16.70
2017,06,20,04,05,16.70
2017,06,20,04,06,16.70
2017,06,20,04,07,16.70
2017,06,20,04,08,16.70
2017,06,20,04,09,16.70
2017,06,20,04,10,16.70
2017,06,20,04,11,16.70
2017,06,20,04,12,16.70
2017,06,20,04,13,16.60
2017,06,20,04,14,16.60
2017,06,20,04,15,16.60
2017,06,20,04,16,16.60
2017,06,20,04,17,16.60
2017,06,20,04,18,16.60
2017,06,20,04,19,16.60
2017,06,20,04,20,16.60
2017,06,20,04,21,16.60
2017,06,20,04,22,16.60
2017,06,20,04,23,16.60
2017,06,20,04,24,16.60
2017,06,20,04,25,16.60
2017,06,20,04,26,16.60
2017,06,20,04,27,16.60
2017,06,20,04,28,16.60
2017,06,20,04,29,16.60
2017,06,20,04,30,16.60
2017,06,20,04,31,16.60
2017,06,20,04,32,16.60
2017,06,20,04,33,16.60
2017,06,20,04,34,16.60
2017,06,20,04,35,16.60
2017,06,20,04,36,16.70
2017,06,20,04,37,16.80
2017,06,20,04,38,16.80
2017,06,20,04,39,16.80
2017,06,20,04,40,16.90
2017,06,20,04,41,16.90
2017,06,20,04,42,16.90
2017,06,20,04,43,16.90
2017,06,20,04,44,16.90
2017,06,20,04,45,16.90
2017,06,20,04,46,16.90
2017,06,20,04,47,16.90
2017,06,20,04,48,16.90
2017,06,20,04,49,16.90
2017,06,20,04,50,16.90
2017,06,20,04,51,16.90
2017,06,20,04,52,16.90
2017,06,20,04,53,16.90
2017,06,20,04,54,17.00
2017,06,20,04,55,17.00
2017,06,20,04,56,17.00
2017,06,20,04,57,17.10
2017,06,20,04,58,17.10
2017,06,20,04,59,17.10
2017,06,20,05,00,17.10
2017,06,20,05,01,17.10
2017,06,20,05,02,17.10
2017,06,20,05,03,17.10
2017,06,20,05,04,17.10
2017,06,20,05,05,17.10
2017,06,20,05,06,17.10
2017,06,20,05,07,17.10
2017,06,20,05,08,17.10
2017,06,20,05,09,17.10
2017,06,20,05,10,17.10
2017,06,20,05,11,17.10
2017,06,20,05,12,17.10
2017,06,20,05,13,17.10
2017,06,20,05,14,17.10
2017,06,20,05,15,17.10
2017,06,20,05,16,17.10
2017,06,20,05,17,17.10
2017,06,20,05,18,17.10
2017,06,20,05,19,17.10
2017,06,20,05,20,17.00
2017,06,20,05,21,17.00
2017,06,20,05,22,17.00
2017,06,20,05,23,17.00
2017,06,20,05,24,16.90
2017,06,20,05,25,16.90
2017,06,20,05,26,16.80
2017,06,20,05,27,16.80
2017,06,20,05,28,16.80
2017,06,20,05,29,16.80
2017,06,20,05,30,16.70
2017,06,20,05,31,16.70
2017,06,20,05,32,16.70
2017,06,20,05,33,16.60
2017,06,20,05,34,16.60
2017,06,20,05,35,16.60
2017,06,20,05,36,16.60
2017,06,20,05,37,16.60
2017,06,20,05,38,16.50
2017,06,20,05,39,16.50
2017,06,20,05,40,16.50
2017,06,20,05,41,16.40
2017,06,20,05,42,16.40
2017,06,20,05,43,16.40
2017,06,20,05,44,16.50
2017,06,20,05,45,16.50
2017,06,20,05,46,16.50
2017,06,20,05,47,16.50
2017,06,20,05,48,16.60
2017,06,20,05,49,16.60
2017,06,20,05,50,16.60
2017,06,20,05,51,16.60
2017,06,20,05,52,16.60
2017,06,20,05,53,16.60
2017,06,20,05,54,16.60
2017,06,20,05,55,16.60
2017,06,20,05,56,16.60
2017,06,20,05,57,16.60
2017,06,20,05,58,16.70
2017,06,20,05,59,16.70
2017,06,20,06,00,16.70
2017,06,20,06,01,16.70
2017,06,20,06,02,16.70
2017,06,20,06,03,16.70
2017,06,20,06,04,16.70
2017,06,20,06,05,16.70
2017,06,20,06,06,16.80
2017,06,20,06,07,16.80
2017,06,20,06,08,16.80
2017,06,20,06,09,16.80
2017,06,20,06,10,16.80
2017,06,20,06,11,16.90
2017,06,20,06,12,16.90
2017,06,20,06,13,16.90
2017,06,20,06,14,16.90
2017,06,20,06,15,16.90
2017,06,20,06,16,16.90
2017,06,20,06,17,16.90
2017,06,20,06,18,16.90
2017,06,20,06,19,17.00
2017,06,20,06,20,17.00
2017,06,20,06,21,17.00
2017,06,20,06,22,17.10
2017,06,20,06,23,17.10
2017,06,20,06,24,17.10
2017,06,20,06,25,17.10
2017,06,20,06,26,17.10
2017,06,20,06,27,17.10
2017,06,20,06,28,17.20
2017,06,20,06,29,17.20
2017,06,20,06,30,17.30
2017,06,20,06,31,17.30
2017,06,20,06,32,17.30
2017,06,20,06,33,17.40
2017,06,20,06,34,17.40
2017,06,20,06,35,17.40
2017,06,20,06,36,17.40
2017,06,20,06,37,17.40
2017,06,20,06,38,17.40
2017,06,20,06,39,17.40
2017,06,20,06,40,17.40
2017,06,20,06,41,17.40
2017,06,20,06,42,17.40
2017,06,20,06,43,17.40
2017,06,20,06,44,17.40
2017,06,20,06,45,17.40
2017,06,20,06,46,17.40
2017,06,20,06,47,17.40
2017,06,20,06,48,17.40
2017,06,20,06,49,17.40
2017,06,20,06,50,17.50
2017,06,20,06,51,17.50
2017,06,20,06,52,17.50
2017,06,20,06,53,17.50
2017,06,20,06,54,17.50
2017,06,20,06,55,17.60
2017,06,20,06,56,17.60
2017,06,20,06,57,17.60
2017,06,20,06,58,17.60
2017,06,20,06,59,17.60
2017,06,20,07,00,17.60
2017,06,20,07,01,17.60
2017,06,20,07,02,17.60
2017,06,20,07,03,17.60
2017,06,20,07,04,17.50
2017,06,20,07,05,17.50
2017,06,20,07,06,17.50
2017,06,20,07,07,17.50
2017,06,20,07,08,17.40
2017,06,20,07,09,17.40
2017,06,20,07,10,17.40
2017,06,20,07,11,17.40
2017,06,20,07,12,17.40
2017,06,20,07,13,17.40
2017,06,20,07,14,17.30
2017,06,20,07,15,17.30
2017,06,20,07,16,17.30
2017,06,20,07,17,17.30
2017,06,20,07,18,17.30
2017,06,20,07,19,17.20
2017,06,20,07,20,17.20
2017,06,20,07,21,17.20
2017,06,20,07,22,17.20
2017,06,20,07,23,17.20
2017,06,20,07,24,17.20
2017,06,20,07,25,17.20
2017,06,20,07,26,17.30
2017,06,20,07,27,17.30
2017,06,20,07,28,17.30
2017,06,20,07,29,17.30
2017,06,20,07,30,17.30
2017,06,20,07,31,17.40
2017,06,20,07,32,17.40
2017,06,20,07,33,17.40
2017,06,20,07,34,17.40
2017,06,20,07,35,17.40
2017,06,20,07,36,17.40
2017,06,20,07,37,17.40
2017,06,20,07,38,17.40
2017,06,20,07,39,17.50
2017,06,20,07,40,17.50
2017,06,20,07,41,17.50
2017,06,20,07,42,17.60
2017,06,20,07,43,17.60
2017,06,20,07,44,17.50
2017,06,20,07,45,17.50
2017,06,20,07,46,17.40
2017,06,20,07,47,17.40
2017,06,20,07,48,17.30
2017,06,20,07,49,17.20
2017,06,20,07,50,17.10
2017,06,20,07,51,17.10
2017,06,20,07,52,17.10
2017,06,20,07,53,17.00
2017,06,20,07,54,16.80
2017,06,20,07,55,16.80
2017,06,20,07,56,16.80
2017,06,20,07,57,16.80
2017,06,20,07,58,16.80
2017,06,20,07,59,16.80
2017,06,20,08,00,16.80
2017,06,20,08,01,16.80
2017,06,20,08,02,16.80
2017,06,20,08,03,16.80
2017,06,20,16,33,16.40
2017,06,20,16,34,16.50
2017,06,20,16,35,16.50
2017,06,20,16,36,16.50
2017,06,20,16,37,16.60
2017,06,20,16,38,16.60
2017,06,20,16,39,16.60
2017,06,20,16,40,16.60
2017,06,20,16,41,16.60
2017,06,20,16,42,16.60
2017,06,20,16,43,16.50
2017,06,20,16,44,16.40
2017,06,20,16,45,16.40
2017,06,20,16,46,16.30
2017,06,20,16,47,16.30
2017,06,20,16,48,16.30
2017,06,20,16,49,16.30
2017,06,20,16,50,16.40
2017,06,20,16,51,16.40
2017,06,20,16,52,16.40
2017,06,20,16,53,16.40
2017,06,20,16,54,16.40
2017,06,20,16,55,16.30
2017,06,20,16,56,16.30
2017,06,20,16,57,16.20
2017,06,20,16,58,16.20
2017,06,20,16,59,16.10
2017,06,20,17,00,16.10
2017,06,20,17,01,16.10
2017,06,20,17,02,16.20
2017,06,20,17,03,16.30
2017,06,20,17,04,16.30
2017,06,20,17,05,16.30
2017,06,20,17,06,16.30
2017,06,20,17,07,16.40
2017,06,20,17,08,16.30
2017,06,20,17,09,16.40
2017,06,20,17,10,16.50
2017,06,20,17,11,16.50
2017,06,20,17,12,16.60
2017,06,20,17,13,16.60
2017,06,20,17,14,16.50
2017,06,20,17,15,16.50
2017,06,20,17,16,16.40
2017,06,20,17,17,16.40
2017,06,20,17,18,16.40
2017,06,20,17,19,16.30
2017,06,20,17,20,16.20
2017,06,20,17,21,16.10
2017,06,20,17,22,16.10
2017,06,20,17,23,16.10
2017,06,20,17,24,16.10
2017,06,20,17,25,16.10
2017,06,20,17,26,16.20
2017,06,20,17,27,16.20
2017,06,20,17,28,16.20
2017,06,20,17,29,16.20
2017,06,20,17,30,16.10
2017,06,20,17,31,16.10
2017,06,20,17,32,16.10
2017,06,20,17,33,16.10
2017,06,20,17,34,16.20
2017,06,20,17,35,16.20
2017,06,20,17,36,16.20
2017,06,20,17,37,16.20
2017,06,20,17,38,16.20
2017,06,20,17,39,16.20
2017,06,20,17,40,16.20
2017,06,20,17,41,16.20
2017,06,20,17,42,16.30
2017,06,20,17,43,16.20
2017,06,20,17,44,16.10
2017,06,20,17,45,16.00
2017,06,20,17,46,15.90
2017,06,20,17,47,15.90
2017,06,20,17,48,15.90
2017,06,20,17,49,15.90
2017,06,20,17,50,15.80
2017,06,20,17,51,15.80
2017,06,20,17,52,15.80
2017,06,20,17,53,15.90
2017,06,20,17,54,15.90
2017,06,20,17,55,15.90
2017,06,20,17,56,15.90
2017,06,20,17,57,15.80
2017,06,20,17,58,15.80
2017,06,20,17,59,15.80
2017,06,20,18,00,15.80
2017,06,20,18,01,15.80
2017,06,20,18,02,15.80
2017,06,20,18,03,15.80
2017,06,20,18,04,15.80
2017,06,20,18,05,15.90
2017,06,20,18,06,15.80
2017,06,20,18,07,15.80
2017,06,20,18,08,15.70
2017,06,20,18,09,15.60
2017,06,20,18,10,15.60
2017,06,20,18,11,15.50
2017,06,20,18,12,15.50
2017,06,20,18,13,15.50
2017,06,20,18,14,15.40
2017,06,20,18,15,15.40
2017,06,20,18,16,15.40
2017,06,20,18,17,15.30
2017,06,20,18,18,15.20
2017,06,20,18,19,15.20
2017,06,20,18,20,15.20
2017,06,20,18,21,15.30
2017,06,20,18,22,15.30
2017,06,20,18,23,15.30
2017,06,20,18,24,15.20
2017,06,20,18,25,15.20
2017,06,20,18,26,15.10
2017,06,20,18,27,15.00
2017,06,20,18,28,15.00
2017,06,20,18,29,15.00
2017,06,20,18,30,15.00
2017,06,20,18,31,15.00
2017,06,20,18,32,15.00
2017,06,20,18,33,15.00
2017,06,20,18,34,15.00
2017,06,20,18,35,15.00
2017,06,20,18,36,15.00
2017,06,20,18,37,14.90
2017,06,20,18,38,14.80
2017,06,20,18,39,14.70
2017,06,20,18,40,14.70
2017,06,20,18,41,14.80
2017,06,20,18,42,14.80
2017,06,20,18,43,14.80
2017,06,20,18,44,14.80
2017,06,20,18,45,14.80
2017,06,20,18,46,14.80
2017,06,20,18,47,14.80
2017,06,20,18,48,14.70
2017,06,20,18,49,14.70
2017,06,20,18,50,14.60
2017,06,20,18,51,14.60
2017,06,20,18,52,14.60
2017,06,20,18,53,14.60
2017,06,20,18,54,14.50
2017,06,20,18,55,14.50
2017,06,20,18,56,14.50
2017,06,20,18,57,14.50
2017,06,20,18,58,14.50
2017,06,20,18,59,14.50
2017,06,20,19,00,14.60
2017,06,20,19,01,14.60
2017,06,20,19,02,14.50
2017,06,20,19,03,14.40
2017,06,20,19,04,14.40
2017,06,20,19,05,14.40
2017,06,20,19,06,14.40
2017,06,20,19,07,14.40
2017,06,20,19,08,14.40
2017,06,20,19,09,14.40
2017,06,20,19,10,14.40
2017,06,20,19,11,14.40
2017,06,20,19,12,14.50
2017,06,20,19,13,14.40
2017,06,20,19,14,14.40
2017,06,20,19,15,14.40
2017,06,20,19,16,14.40
2017,06,20,19,17,14.40
2017,06,20,19,18,14.40
2017,06,20,19,19,14.40
2017,06,20,19,20,14.40
2017,06,20,19,21,14.40
2017,06,20,19,22,14.40
2017,06,20,19,23,14.30
2017,06,20,19,24,14.30
2017,06,20,19,25,14.30
2017,06,20,19,26,14.30
2017,06,20,19,27,14.30
2017,06,20,19,28,14.30
2017,06,20,19,29,14.40
2017,06,20,19,30,14.40
2017,06,20,19,31,14.30
2017,06,20,19,32,14.30
2017,06,20,19,33,14.30
2017,06,20,19,34,14.20
2017,06,20,19,35,14.20
2017,06,20,19,36,14.20
2017,06,20,19,37,14.20
2017,06,20,19,38,14.10
2017,06,20,19,39,14.10
2017,06,20,19,40,14.10
2017,06,20,19,41,14.10
2017,06,20,19,42,14.10
2017,06,20,19,43,14.00
2017,06,20,19,44,14.00
2017,06,20,19,45,13.90
2017,06,20,19,46,13.90
2017,06,20,19,47,13.80
2017,06,20,19,48,13.80
2017,06,20,19,49,13.80
2017,06,20,19,50,13.80
2017,06,20,19,51,13.80
2017,06,20,19,52,13.80
2017,06,20,19,53,13.80
2017,06,20,19,54,13.80
2017,06,20,19,55,13.70
2017,06,20,19,56,13.70
2017,06,20,19,57,13.70
2017,06,20,19,58,13.60
2017,06,20,19,59,13.60
2017,06,20,20,00,13.60
2017,06,20,20,01,13.60
2017,06,20,20,02,13.60
2017,06,20,20,03,13.60
2017,06,20,20,04,13.60
2017,06,20,20,05,13.60
2017,06,20,20,06,13.60
2017,06,20,20,07,13.60
2017,06,20,20,08,13.60
2017,06,20,20,09,13.50
2017,06,20,20,10,13.50
2017,06,20,20,11,13.50
2017,06,20,20,12,13.40
2017,06,20,20,13,13.40
2017,06,20,20,14,13.40
2017,06,20,20,15,13.30
2017,06,20,20,16,13.30
2017,06,20,20,17,13.30
2017,06,20,20,18,13.30
2017,06,20,20,19,13.30
2017,06,20,20,20,13.30
2017,06,20,20,21,13.30
2017,06,20,20,22,13.30
2017,06,20,20,23,13.20
2017,06,20,20,24,13.20
2017,06,20,20,25,13.20
2017,06,20,20,26,13.20
2017,06,20,20,27,13.10
2017,06,20,20,28,13.10
2017,06,20,20,29,13.10
2017,06,20,20,30,13.10
2017,06,20,20,31,13.10
2017,06,20,20,32,13.10
2017,06,20,20,33,13.10
2017,06,20,20,34,13.10
2017,06,20,20,35,13.00
2017,06,20,20,36,13.00
2017,06,20,20,37,12.90
2017,06,20,20,38,12.90
2017,06,20,20,39,12.90
2017,06,20,20,40,12.90
2017,06,20,20,41,12.80
2017,06,20,20,42,12.80
2017,06,20,20,43,12.80
2017,06,20,20,44,12.80
2017,06,20,20,45,12.80
2017,06,20,20,46,12.70
2017,06,20,20,47,12.70
2017,06,20,20,48,12.70
2017,06,20,20,49,12.70
2017,06,20,20,50,12.60
2017,06,20,20,51,12.60
2017,06,20,20,52,12.60
2017,06,20,20,53,12.60
2017,06,20,20,54,12.50
2017,06,20,20,55,12.50
2017,06,20,20,56,12.50
2017,06,20,20,57,12.40
2017,06,20,20,58,12.30
2017,06,20,20,59,12.30
2017,06,20,21,00,12.20
2017,06,20,21,01,12.20
2017,06,20,21,02,12.20
2017,06,20,21,03,12.20
2017,06,20,21,04,12.20
2017,06,20,21,05,12.20
2017,06,20,21,06,12.20
2017,06,20,21,07,12.20
2017,06,20,21,08,12.20
2017,06,20,21,09,12.20
2017,06,20,21,10,12.10
2017,06,20,21,11,12.10
2017,06,20,21,12,12.10
2017,06,20,21,13,12.10
2017,06,20,21,14,12.10
2017,06,20,21,15,12.10
2017,06,20,21,16,12.10
2017,06,20,21,17,12.00
2017,06,20,21,18,12.00
2017,06,20,21,19,12.00
2017,06,20,21,20,11.90
2017,06,20,21,21,11.90
2017,06,20,21,22,11.90
2017,06,20,21,23,11.90
2017,06,20,21,24,11.90
2017,06,20,21,25,11.90
2017,06,20,21,26,11.90
2017,06,20,21,27,11.90
2017,06,20,21,28,11.90
2017,06,20,21,29,11.90
2017,06,20,21,30,11.90
2017,06,20,21,31,11.90
2017,06,20,21,32,11.90
2017,06,20,21,33,11.90
2017,06,20,21,34,11.90
2017,06,20,21,35,11.90
2017,06,20,21,36,11.90
2017,06,20,21,37,11.90
2017,06,20,21,38,11.80
2017,06,20,21,39,11.80
2017,06,20,21,40,11.80
2017,06,20,21,41,11.80
2017,06,20,21,42,11.90
2017,06,20,21,43,11.80
2017,06,20,21,44,11.80
2017,06,20,21,45,11.80
2017,06,20,21,46,11.80
2017,06,20,21,47,11.80
2017,06,20,21,48,11.80
2017,06,20,21,49,11.80
2017,06,20,21,50,11.80
2017,06,20,21,51,11.80
2017,06,20,21,52,11.80
2017,06,20,21,53,11.80
2017,06,20,21,54,11.80
2017,06,20,21,55,11.80
2017,06,20,21,56,11.80
2017,06,20,21,57,11.70
2017,06,20,21,58,11.70
2017,06,20,21,59,11.70
2017,06,20,22,00,11.70
2017,06,20,22,01,11.70
2017,06,20,22,02,11.70
2017,06,20,22,03,11.70
2017,06,20,22,04,11.70
2017,06,20,22,05,11.70
2017,06,20,22,06,11.70
2017,06,20,22,07,11.70
2017,06,20,22,08,11.70
2017,06,20,22,09,11.70
2017,06,20,22,10,11.70
2017,06,20,22,11,11.70
2017,06,20,22,12,11.70
2017,06,20,22,13,11.70
2017,06,20,22,14,11.60
2017,06,20,22,15,11.70
2017,06,20,22,16,11.70
2017,06,20,22,17,11.70
2017,06,20,22,18,11.70
2017,06,20,22,19,11.60
2017,06,20,22,20,11.60
2017,06,20,22,21,11.60
2017,06,20,22,22,11.60
2017,06,20,22,23,11.60
2017,06,20,22,24,11.60
2017,06,20,22,25,11.60
2017,06,20,22,26,11.60
2017,06,20,22,27,11.60
2017,06,20,22,28,11.60
2017,06,20,22,29,11.60
2017,06,20,22,30,11.60
2017,06,20,22,31,11.60
2017,06,20,22,32,11.60
2017,06,20,22,33,11.60
2017,06,20,22,34,11.50
2017,06,20,22,35,11.50
2017,06,20,22,36,11.50
2017,06,20,22,37,11.40
2017,06,20,22,38,11.40
2017,06,20,22,39,11.40
2017,06,20,22,40,11.40
2017,06,20,22,41,11.40
2017,06,20,22,42,11.40
2017,06,20,22,43,11.40
2017,06,20,22,44,11.40
2017,06,20,22,45,11.40
2017,06,20,22,46,11.40
2017,06,20,22,47,11.40
2017,06,20,22,48,11.40
2017,06,20,22,49,11.40
2017,06,20,22,50,11.40
2017,06,20,22,51,11.40
2017,06,20,22,52,11.40
2017,06,20,22,53,11.40
2017,06,20,22,54,11.40
2017,06,20,22,55,11.40
2017,06,20,22,56,11.40
2017,06,20,22,57,11.40
2017,06,20,22,58,11.40
2017,06,20,22,59,11.40
2017,06,20,23,00,11.40
2017,06,20,23,01,11.40
2017,06,20,23,02,11.40
2017,06,20,23,03,11.40
2017,06,20,23,04,11.40
2017,06,20,23,05,11.40
2017,06,20,23,06,11.40
2017,06,20,23,07,11.40
2017,06,20,23,08,11.40
2017,06,20,23,09,11.40
2017,06,20,23,10,11.40
2017,06,20,23,11,11.40
2017,06,20,23,12,11.40
2017,06,20,23,13,11.40
2017,06,20,23,14,11.40
2017,06,20,23,15,11.40
2017,06,20,23,16,11.40
2017,06,20,23,17,11.40
2017,06,20,23,18,11.30
2017,06,20,23,19,11.30
2017,06,20,23,20,11.30
2017,06,20,23,21,11.30
2017,06,20,23,22,11.30
2017,06,20,23,23,11.30
2017,06,20,23,24,11.30
2017,06,20,23,25,11.30
2017,06,20,23,26,11.30
2017,06,20,23,27,11.30
2017,06,20,23,28,11.30
2017,06,20,23,29,11.30
2017,06,20,23,30,11.30
2017,06,20,23,31,11.30
2017,06,20,23,32,11.30
2017,06,20,23,33,11.30
2017,06,20,23,34,11.30
2017,06,20,23,35,11.30
2017,06,20,23,36,11.30
2017,06,20,23,37,11.30
2017,06,20,23,38,11.30
2017,06,20,23,39,11.30
2017,06,20,23,40,11.30
2017,06,20,23,41,11.30
2017,06,20,23,42,11.30
2017,06,20,23,43,11.30
2017,06,20,23,44,11.30
2017,06,20,23,45,11.30
2017,06,20,23,46,11.30
2017,06,20,23,47,11.30
2017,06,20,23,48,11.30
2017,06,20,23,49,11.30
2017,06,20,23,50,11.30
2017,06,20,23,51,11.30
2017,06,20,23,52,11.30
2017,06,20,23,53,11.30
2017,06,20,23,54,11.30
2017,06,20,23,55,11.30
2017,06,20,23,56,11.20
2017,06,20,23,57,11.20
2017,06,20,23,58,11.20
2017,06,20,23,59,11.20
